Location: Pine Mountain Observatory
(43.7910°N, 120.9377°W)
Time: 19:04:03
(UTC-07:00)

APEX - Visible Passes

Search period start: 23 March 2017 00:00
Search period end: 02 April 2017 00:00
Orbit: 334 x 1205 km, 69.9° (Epoch: 22 March)

Date Brightness Start Highest point End Pass type
(mag) Time Alt. Az. Time Alt. Az. Time Alt. Az.
23 Mar 6.6 02:08:02 10° N 02:10:01 20° N 02:10:01 20° N visible
23 Mar 6.7 03:50:01 10° NNW 03:50:16 11° NW 03:50:16 11° NW visible
24 Mar 6.7 01:31:30 10° N 01:33:36 18° NNE 01:33:36 18° NNE visible
24 Mar 6.6 03:13:01 10° NNW 03:13:52 15° NNW 03:13:52 15° NNW visible
25 Mar 6.8 00:55:10 10° N 00:57:14 15° NNE 00:57:14 15° NNE visible
25 Mar 6.5 02:36:06 10° NNW 02:37:30 18° NNW 02:37:30 18° NNW visible
26 Mar 7.0 00:19:23 10° NNE 00:20:53 11° NE 00:20:53 11° NE visible
26 Mar 6.5 01:59:14 10° NNW 02:01:08 21° N 02:01:08 21° N visible
27 Mar 6.5 01:22:26 10° N 01:24:47 22° N 01:24:47 22° N visible
27 Mar 6.8 03:04:37 10° NW 03:05:03 12° NW 03:05:03 12° NW visible
28 Mar 6.5 00:45:43 10° N 00:48:26 21° NNE 00:48:26 21° NNE visible
28 Mar 6.6 02:27:26 10° NNW 02:28:41 17° NNW 02:28:41 17° NNW visible
29 Mar 6.6 00:09:07 10° N 00:12:04 17° NNE 00:12:04 17° NNE visible
29 Mar 6.4 01:50:21 10° NNW 01:52:19 23° NNW 01:52:19 23° NNW visible
29 Mar 6.8 23:32:48 10° NNE 23:35:37 13° NE 23:35:41 13° NE visible
30 Mar 6.3 01:13:18 10° NNW 01:15:57 27° N 01:15:57 27° N visible
30 Mar 6.9 02:56:08 10° NW 02:56:13 10° NW 02:56:13 10° NW visible
31 Mar 6.2 00:36:20 10° NNW 00:39:34 28° NNE 00:39:34 28° NNE visible
31 Mar 6.7 02:18:39 10° NW 02:19:49 16° NW 02:19:49 16° NW visible
31 Mar 6.2 23:59:24 10° N 00:03:10 25° NNE 00:03:10 25° NNE visible
01 Apr 6.4 01:41:18 10° NNW 01:43:25 23° NNW 01:43:25 23° NNW visible
01 Apr 6.4 23:22:34 10° N 23:26:45 20° NE 23:26:45 20° NE visible
